Whiteclay, NE

5:28 AM MST on February 12, 2016 (GMT -0700)
Pine Ridge

Weather History for KIEN - March, 2013

Change the Weather History Date:

Thursday, March 7, 2013

  Actual Average Record
Temperature  
Mean Temperature 47 °F 33 °F  
Max Temperature 65 °F 47 °F 75 °F (2006)
Min Temperature 28 °F 19 °F -8 °F (2008)
Degree Days  
Heating Degree Days 18 32  
Month to date heating degree days 195 231  
Since 1 July heating degree days 5296 5581  
Cooling Degree Days 0 0  
Month to date cooling degree days 0 0  
Year to date cooling degree days 0 0  
Moisture  
Dew Point 25 °F    
Average Humidity 49    
Maximum Humidity 78    
Minimum Humidity 20    
Precipitation  
Precipitation 0.00 in 0.02 in 0.08 in (2011)
Month to date precipitation 0.00 0.13  
Year to date precipitation 0.94 0.92  
Sea Level Pressure  
Sea Level Pressure 29.96 in    
Wind  
Wind Speed 10 mph (NE)    
Max Wind Speed 28 mph    
Max Gust Speed 35 mph    
Visibility 10 miles    
Events      
T = Trace of Precipitation, MM = Missing Value Source: NWS Daily Summary

Daily Weather History Graph

Daily Weather History Graph

Search for Another Location

Airport or City:

Trip Planner

Search our weather history database for the weather conditions in past years. The results will help you decide how hot, cold, wet, or windy it might be!

Date:

Astronomy

Mar. 07, 2013 Rise Set
Actual Time 6:15 AM MST 5:47 PM MST
Civil Twilight 5:47 AM MST 6:15 PM MST
Nautical Twilight 5:14 AM MST 6:48 PM MST
Astronomical Twilight 4:41 AM MST 7:21 PM MST
Moon 3:22 AM MST (3/7) 1:32 PM MST (3/7)
Length of Visible Light 12h 28m
Length of Day
11h 31m
Waning Crescent, 19% of the Moon is Illuminated
Mar 7
Waning Crescent
Mar 11
New
Mar 19
First Quarter
Mar 27
Full
Apr 2
Last Quarter

Hourly Weather History & Observations

Time (MST) Temp. Windchill Dew Point Humidity Pressure Visibility Wind Dir Wind Speed Gust Speed Precip Events Conditions
12:52 AM 34.0 °F 21.5 °F 24.1 °F 67% 29.86 in 10.0 mi South 24.2 mph 34.5 mph N/A   Clear
1:52 AM 33.1 °F 23.0 °F 24.1 °F 70% 29.86 in 10.0 mi SSW 15.0 mph 23.0 mph N/A   Clear
2:52 AM 33.1 °F 28.7 °F 24.1 °F 70% 29.85 in 10.0 mi Variable 4.6 mph - N/A   Clear
3:52 AM 32.0 °F 23.6 °F 24.1 °F 73% 29.86 in 10.0 mi South 10.4 mph - N/A   Clear
4:52 AM 30.9 °F 25.2 °F 23.0 °F 72% 29.89 in 10.0 mi SW 5.8 mph - N/A   Clear
5:52 AM 30.9 °F 22.2 °F 24.1 °F 76% 29.90 in 10.0 mi SSW 10.4 mph - N/A   Clear
6:52 AM 32.0 °F 24.2 °F 24.1 °F 73% 29.92 in 10.0 mi SW 9.2 mph - N/A   Clear
8:52 AM 45.0 °F 41.2 °F 26.1 °F 48% 29.93 in 10.0 mi SW 6.9 mph - N/A   Clear
9:52 AM 55.9 °F - 25.0 °F 30% 29.92 in 10.0 mi West 5.8 mph - N/A   Clear
10:52 AM 61.0 °F - 27.0 °F 27% 29.90 in 10.0 mi West 17.3 mph 24.2 mph N/A   Clear
11:52 AM 64.0 °F - 23.0 °F 21% 29.91 in 10.0 mi WNW 15.0 mph 21.9 mph N/A   Partly Cloudy
12:52 PM 63.0 °F - 27.0 °F 26% 29.90 in 10.0 mi North 15.0 mph 20.7 mph N/A   Scattered Clouds
1:52 PM 57.9 °F - 26.1 °F 30% 29.94 in 10.0 mi NNE 15.0 mph - N/A   Clear
2:52 PM 57.9 °F - 25.0 °F 28% 29.96 in 10.0 mi NNE 13.8 mph - N/A   Clear
3:52 PM 55.9 °F - 25.0 °F 30% 29.97 in 10.0 mi NNE 13.8 mph - N/A   Clear
4:52 PM 53.1 °F - 24.1 °F 32% 30.01 in 10.0 mi ENE 15.0 mph - N/A   Clear
5:52 PM 46.0 °F 41.4 °F 25.0 °F 44% 30.04 in 10.0 mi NE 9.2 mph - N/A   Mostly Cloudy
6:52 PM 42.1 °F 37.7 °F 26.1 °F 53% 30.07 in 10.0 mi East 6.9 mph - N/A   Overcast
7:52 PM 37.9 °F 32.1 °F 26.1 °F 62% 30.08 in 10.0 mi ENE 8.1 mph - N/A   Mostly Cloudy
8:52 PM 35.1 °F 29.3 °F 25.0 °F 67% 30.09 in 10.0 mi ENE 6.9 mph - N/A   Mostly Cloudy
9:52 PM 32.0 °F 26.4 °F 24.1 °F 73% 30.09 in 10.0 mi ENE 5.8 mph - N/A   Clear
10:52 PM 28.9 °F 22.8 °F 21.9 °F 75% 30.09 in 10.0 mi ENE 5.8 mph - N/A   Clear
11:52 PM 28.0 °F 22.8 °F 21.9 °F 78% 30.09 in 10.0 mi NE 4.6 mph - N/A   Clear